VK6DUG Weather Reports


time (UTC)temp
F
wind
direction
speed
knots
gust
knots
rain 1hr
in
rain 24hr
in
rain mn
in
humidity
%
barometer
mb
20260505024017 66 71 0.0 2.6 0.00 0.00 0.00 61 1030.2
20260505023035 66 77 0.9 3.5 0.00 0.00 0.00 61 1030.1
20260505022030 65 95 0.9 3.5 0.00 0.00 0.00 62 1030.2
20260505021027 65 133 0.9 3.5 0.00 0.00 0.00 62 1030.2
20260505020024 64 153 0.9 3.5 0.00 0.00 0.00 64 1030.3
20260505015022 64 164 1.7 3.5 0.00 0.00 0.00 68 1030.3
20260505014019 64 165 1.7 3.5 0.00 0.00 0.00 70 1030.3
20260505013016 63 174 1.7 3.5 0.00 0.00 0.00 71 1030.3
20260505012033 63 181 1.7 2.6 0.00 0.00 0.00 73 1030.3
20260505011030 61 136 1.7 3.5 0.00 0.00 0.00 77 1030.4
20260505010028 60 36 0.9 2.6 0.00 0.00 0.00 85 1030.3
20260505005026 57 105 1.7 4.3 0.00 0.00 0.00 91 1030.4
20260505004023 56 59 0.9 2.6 0.00 0.00 0.00 94 1030.4
20260505003020 55 62 0.9 2.6 0.00 0.00 0.00 95 1030.2
20260505002017 53 85 0.9 1.7 0.00 0.00 0.00 96 1030.2
20260505001035 53 76 0.9 1.7 0.00 0.00 0.00 96 1030.2
20260505000032 51 82 0.9 2.6 0.00 0.00 0.00 96 1029.9
20260504235029 50 44 0.9 2.6 0.00 0.00 0.00 96 1029.9
20260504234027 49 32 0.9 2.6 0.00 0.00 0.00 96 1029.6
20260504233024 49 102 0.9 2.6 0.00 0.00 0.00 96 1029.4
20260504232021 48 96 0.9 1.7 0.00 0.00 0.00 95 1029.2
20260504231018 48 109 0.9 2.6 0.00 0.00 0.00 95 1029.2
20260504230034 48 65 0.0 2.6 0.00 0.00 0.00 95 1029.0
20260504225032 48 72 0.9 2.6 0.00 0.00 0.00 95 1028.8
20260504224030 48 52 0.9 1.7 0.00 0.00 0.00 95 1028.8
20260504223028 49 44 0.9 2.6 0.00 0.00 0.00 95 1028.8
20260504222025 49 288 0.9 1.7 0.00 0.00 0.00 95 1028.7
20260504221022 49 9 1.7 3.5 0.00 0.00 0.00 95 1028.7
20260504220018 49 66 0.9 1.7 0.00 0.00 0.00 95 1028.5
20260504215032 49 9 1.7 3.5 0.00 0.00 0.00 95 1028.6
20260504214029 48 169 0.9 2.6 0.00 0.00 0.00 95 1028.5
20260504213025 49 351 0.9 3.5 0.00 0.00 0.00 95 1028.6
20260504212021 48 261 1.7 3.5 0.00 0.00 0.00 95 1028.7
20260504211019 48 50 1.7 3.5 0.00 0.00 0.00 94 1028.7
20260504210036 48 124 0.9 2.6 0.00 0.00 0.00 94 1028.7
20260504205031 48 23 1.7 3.5 0.00 0.00 0.00 94 1028.7
20260504204028 48 316 1.7 3.5 0.00 0.00 0.00 94 1028.8
20260504203024 49 353 2.6 4.3 0.00 0.00 0.00 94 1028.8
20260504202021 48 301 0.9 2.6 0.00 0.00 0.00 94 1028.7
20260504201019 48 140 1.7 2.6 0.00 0.00 0.00 94 1028.7
20260504200017 49 323 2.6 3.5 0.00 0.00 0.00 94 1028.7
20260504195032 48 110 0.9 1.7 0.00 0.00 0.00 94 1028.7
20260504194030 48 245 1.7 2.6 0.00 0.00 0.00 94 1028.8
20260504193025 48 288 0.9 2.6 0.00 0.00 0.00 94 1028.8
20260504192020 48 72 0.9 1.7 0.00 0.00 0.00 94 1028.9
20260504191017 49 64 0.9 1.7 0.00 0.00 0.00 94 1028.9
20260504190034 49 78 0.9 1.7 0.00 0.00 0.00 94 1029.0
20260504185029 49 84 0.9 1.7 0.00 0.00 0.00 94 1029.0
20260504184025 48 95 0.9 1.7 0.00 0.00 0.00 94 1029.0
20260504183022 48 78 0.9 1.7 0.00 0.00 0.00 94 1029.1
20260504182018 48 64 0.9 2.6 0.00 0.00 0.00 94 1029.0
20260504181034 49 109 0.9 1.7 0.00 0.00 0.00 93 1029.0
20260504180030 49 101 0.9 1.7 0.00 0.00 0.00 93 1029.1
20260504175026 49 73 0.9 1.7 0.00 0.00 0.00 93 1029.2
20260504174021 49 70 0.9 1.7 0.00 0.00 0.00 93 1029.2
20260504173017 49 81 0.9 1.7 0.00 0.00 0.00 93 1029.3
20260504172035 49 79 0.9 1.7 0.00 0.00 0.00 93 1029.3
20260504171031 49 117 0.9 2.6 0.00 0.00 0.00 93 1029.3
20260504151028 51 129 0.9 2.6 0.00 0.00 0.00 89 1029.4
20260504141024 53 66 0.9 1.7 0.00 0.00 0.00 87 1029.9
20260504081021 67 180 3.5 7.0 0.00 0.00 0.00 67 1028.5
20260504045024 69 136 1.7 4.3 0.00 0.00 0.00 55 1029.6
20260504044021 68 177 0.9 2.6 0.00 0.00 0.00 55 1029.7
20260504043019 68 152 0.9 2.6 0.00 0.00 0.00 57 1029.9
20260504042016 69 3 0.9 3.5 0.00 0.00 0.00 55 1030.0
20260504041033 68 337 0.9 2.6 0.00 0.00 0.00 57 1030.3
20260504040029 66 186 1.7 3.5 0.00 0.00 0.00 60 1030.4
20260504035027 67 123 1.7 5.2 0.00 0.00 0.00 60 1030.6
20260504034024 67 31 0.9 4.3 0.00 0.00 0.00 59 1030.8
20260504033021 66 74 1.7 4.3 0.00 0.00 0.00 60 1030.8
20260504032018 66 344 0.9 3.5 0.00 0.00 0.00 61 1031.1
20260504031035 67 19 0.9 2.6 0.00 0.00 0.00 59 1031.0
20260504030033 66 78 0.9 3.5 0.00 0.00 0.00 62 1031.2
20260504025030 65 100 0.9 4.3 0.00 0.00 0.00 64 1031.2